Miscellaneous Local Product
Issued by NWS North Platte, NE

Home | Current Version | Previous Version | Text Only | Print | Product List | Glossary On
Versions: 1 2 3 4 5 6 7 8 9 10 11 12 13 14 15 16 17 18 19 20 21 22 23 24 25 26 27 28 29 30 31 32 33 34 35 36 37 38 39 40 41 42 43 44 45 46 47 48 49 50
000
AXUS43 KLBF 301910
MISLBF


WESTERN AND NORTH CENTRAL NEBRASKA HOURLY WEATHER ROUNDUP
NATIONAL WEATHER SERVICE NORTH PLATTE NE
200 PM CDT SAT APR 30 2016

NOTE: "FAIR" INDICATES FEW OR NO CLOUDS BELOW 12,000 FEET WITH NO
SIGNIFICANT WEATHER AND/OR OBSTRUCTIONS TO VISIBILITY.

NOTE: STATIONS NOT REPORTING VARIABLES SUCH AS SKY/WEATHER OR
PRESSURE ARE PROVIDED BY RAWS AND APRS NETWORKS AND ARE NOT UNDER
NATIONAL WEATHER SERVICE QUALITY CONTROL.

...OBSERVATIONS IN AND NEAR THE EASTERN PANHANDLE OF NEBRASKA...

CITY           SKY/WX    TMP DP  RH WIND       PRES   REMARKS
PINE RIDGE     LGT RAIN  42  35  76 NE21G36   30.00S
CHADRON        LGT RAIN  42  38  85 N18G25    30.02S
ALLIANCE       LGT SNOW  34  32  92 N20       29.95R VSB 3/4 WCI  23
SIDNEY         SNOW      34  32  92 N22       29.92R VSB 1/2 WCI  22
CRESCENT LAKE    N/A     35  34  95 N16         N/A  WCI  25
$$

...OBSERVATIONS IN NORTHERN NEBRASKA AND FAR SOUTHERN SOUTH DAKOTA...

CITY           SKY/WX    TMP DP  RH WIND       PRES   REMARKS
WINNER         LGT RAIN  44  37  76 NE26G35   29.95S
VALENTINE      LGT RAIN  41  37  86 NE25G35   29.92S
THEDFORD       CLOUDY    35  34  96 N13G22    29.87S WCI  26
AINSWORTH      LGT SNOW  34  33  96 N17G26    29.89S WCI  24
O`NEILL        CLOUDY    41  39  92 NE22G32   29.84S
ORD            LGT RAIN  42  40  92 NE16      29.79R FOG
BROKEN BOW     LGT RAIN  38  36  92 N17       29.81R FOG     WCI  28
VALENTINE NWR    N/A     36  35  96 N13G21      N/A  WCI  27
BUTTE            N/A     39  38  97 NE22G32     N/A  WCI  28
HALSEY           N/A     34  33  95 N8G16       N/A  WCI  27
CHAMBERS         N/A     42  40  93 N8G23       N/A
EWING            N/A     43  42  96 NE9G18      N/A
$$

...OBSERVATIONS IN SOUTHWEST NEBRASKA AND FAR NORTHEAST COLORADO...

CITY           SKY/WX    TMP DP  RH WIND       PRES   REMARKS
HOLYOKE        LGT SNOW  37  34  87 N16       29.89R WCI  28
IMPERIAL       CLOUDY    36  33  89 N21       29.85S WCI  25
OGALLALA       LGT RAIN  36  33  91 N21       29.88S WCI  24
NORTH PLATTE   FLURRIES  36  33  89 N22G28    29.83S WCI  25
MCCOOK         CLOUDY    42  36  79 N15       29.81R
LEXINGTON      LGT RAIN  41  37  87 N16       29.80R
PAXTON           N/A     35  34  95 N14         N/A  WCI  26
STAPLETON        N/A     34  32  94 CALM        N/A
GOTHENBURG       N/A     38  33  84 N12         N/A  WCI  30
CALLAWAY         N/A     35  33  94 N10         N/A  WCI  27
$$

...OBSERVATIONS IN CENTRAL LINCOLN COUNTY AREA...

CITY           SKY/WX    TMP DP  RH WIND       PRES   REMARKS
N.P. AIRPORT   FLURRIES  36  33  89 N22G28    29.83S WCI  25
N.P. DOWNTOWN    N/A     35  33  94 N12G20      N/A  WCI  27
N.P. SOUTHEAST   N/A     35  33  93 N8G22       N/A  WCI  28
N.P. HILLCREST   N/A     34  33  96 NE21        N/A  WCI  22
$$

...SOME OBSERVATIONS FROM AROUND THE REGION...

CITY           SKY/WX    TMP DP  RH WIND       PRES   REMARKS
DENVER         LGT SNOW  34  29  82 NW23      29.98S VSB 3/4 WCI  22
LARAMIE        LGT SNOW  29  25  85 N12       30.01R FOG     WCI  19
CHEYENNE       LGT SNOW  32  29  88 N18G31    29.98S VSB 3/4 WCI  20
SCOTTSBLUFF    LGT RAIN  38  35  89 N20G29    29.99R WCI  28
RAPID CITY     CLOUDY    47  37  68 NE20G26   30.08F
BISMARCK       SUNNY     59  31  34 NE25      30.19F
PIERRE         PTSUNNY   53  34  48 NE28G37   30.02S
SIOUX FALLS    LGT RAIN  44  41  89 NE29G37   29.90F FOG
OMAHA          DRIZZLE   49  47  93 E9        29.74R FOG
GRAND ISLAND   LGT RAIN  44  43  96 N13       29.75S FOG
KANSAS CITY    MOSUNNY   64  54  69 SW18G24   29.71S
WICHITA        MOSUNNY   61  46  57 W16       29.78F
OKLAHOMA CITY  MOSUNNY   66  50  56 NW10G21   29.81F
DALLAS         PTSUNNY   71  58  63 W8        29.78F
AMARILLO       CLOUDY    57  38  48 W8        29.89F
DODGE CITY     CLOUDY    49  36  61 W17G24    29.84F
HAYS           CLOUDY    50  36  57 NW16      29.80S
GOODLAND       CLOUDY    39  34  82 NW17      29.83S WCI  30
$$




USA.gov is the U.S. government's official web portal to all federal, state and local government web resources and services.